OpenBCM V1.07b12 (Linux)

Packet Radio Mailbox

DB0FHN

[JN59NK Nuernberg]

 Login: GUEST





  
I6KZR  > KEPLER   29.12.02 16:59l 317 Lines 15753 Bytes #999 (0) @ WW
BID : 14417_IK6WID
Read: DB0FHN GUEST
Subj: 2L Keplerian Elements #362
Path: DB0FHN<DB0RGB<OK0PPL<RZ6HXA<SP7MGD<IK6PYS<I6ZLO<IK6WID
Sent: 021228/1913Z @:IK6WID.#AP.IMAR.ITA.EU #:14417 [MONTE URANO]  FBB7.00i
From: I6KZR@IK6WID.#AP.IMAR.ITA.EU
To  : KEPLER@WW


OSCAR 7
1 07530U 74089B   02362.17888534 -.00000029  00000-0  10000-3 0  1381
2 07530 101.7700  45.4411 0012341 178.9261 181.1839 12.53563044286625
GOES 2
1 10061U 77048A   02359.35983672 -.00000305  00000-0  00000+0 0   322
2 10061  14.1180  13.8737 0014065 196.4899 163.4904  0.99401889 38282
GOES 3
1 10953U 78062A   02361.08519727 -.00000088  00000-0  00000+0 0  8706
2 10953  13.3852  17.6369 0004400 337.6795  22.3163  1.00277392 42961
GOES 6
1 14050U 83041A   02361.20537289  .00000066  00000-0  10000-3 0  4074
2 14050  10.3329  35.8606 0004000 332.7358  27.2428  1.00286086130104
OSCAR 10
1 14129U 83058B   02356.12292339 -.00000267  00000-0  10000-3 0  9077
2 14129  25.8271 174.0668 6049945 312.5642  10.0639  2.05871554118866
OSCAR 11 (UoSAT 2)
1 14781U 84021B   02361.86986697  .00003244  00000-0  45842-3 0   290
2 14781  98.1111 330.4231 0010310  25.9344 334.2379 14.77825879  8458
NOAA 10
1 16969U 86073A   02361.89251796  .00000431  00000-0  19517-3 0  6085
2 16969  98.7246 351.1293 0011711 239.1257 120.8772 14.27041438846394
GOES 7
1 17561U 87022A   02355.38651376  .00000102  00000-0  10000-3 0  7897
2 17561   7.4944  55.8496 0008079 326.4312  34.0198  1.00298198 41156
COSMOS 1861
1 18129U 87054A   02361.81113118  .00000102  00000-0  94824-4 0  1773
2 18129  82.9246 185.5649 0012909  19.0500 341.1136 13.72694889777274
EUTELSAT 1-F4 (ECS 4)
1 18351U 87078B   02352.12522730 -.00000062  00000-0  10000-3 0   233
2 18351   7.0733  58.7527 0004962 184.4653 172.0391  0.96710043 42061
NOAA 11
1 19531U 88089A   02361.88523192  .00000436  00000-0  25050-3 0  4467
2 19531  98.9081  78.4244 0011755 356.1349   3.9728 14.14511545735358
ASTRA 1A
1 19688U 88109B   02356.82543404  .00000052  00000-0  10000-3 0  5496
2 19688   1.2424  96.2799 0003229 161.5585 135.7322  1.00273958 31615
OSCAR 14 (UOSAT 3)
1 20437U 90005B   02362.13588308  .00000344  00000-0  14578-3 0  1282
2 20437  98.2791  43.2338 0011253   2.4448 357.6789 14.31218938674991
OSCAR 15 (UOSAT 4)
1 20438U 90005C   02361.55773986  .00000291  00000-0  12813-3 0  7586
2 20438  98.2539  32.0434 0010652  15.1442 345.0061 14.30182654674585
OSCAR 16 (PACSAT)
1 20439U 90005D   02360.20214628  .00000484  00000-0  19783-3 0  8297
2 20439  98.3262  52.7549 0011530  14.4372 345.7135 14.31448273674757
OSCAR 17 (DOVE)
1 20440U 90005E   02359.92204097 +.00000517 +00000-0 +20915-3 0 07234
2 20440 098.3447 056.2502 0011688 013.3513 346.7976 14.31723206674780
OSCAR 18 (WEBERSAT)
1 20441U 90005F   02361.86356035  .00000448  00000-0  18405-3 0  9732
2 20441  98.3426  57.3620 0012081   9.3053 350.8347 14.31531672675045
OSCAR 19 (LUSAT)
1 20442U 90005G   02361.21898955  .00000448  00000-0  18369-3 0  9261
2 20442  98.3552  59.6701 0012618   9.2987 350.8426 14.31693071675008
JAS 1B (FUJI 2)
1 20480U 90013C   02359.97437560 -.00000001 +00000-0 +62571-4 0 04573
2 20480 099.0403 328.0133 0541099 127.4691 237.6897 12.83327147603514
HST
1 20580U 90037B   02361.45672012  .00003295  00000-0  26215-3 0  2781
2 20580  28.4693  23.0452 0004491  72.1911  73.9963 14.97576946494668
EUTELSAT 2-F1
1 20777U 90079B   02360.72994659 -.00000102  00000-0  10000-3 0    89
2 20777   3.3706  85.0406 0000558 254.6768  92.8416  1.00385171 25556
FENGYUN 1B
1 20788U 90081A   02361.87092159  .00000541  00000-0  38255-3 0  8441
2 20788  99.0193 339.5836 0015909  16.3664 343.8012 14.02130721630152
EUTELSAT 2-F2
1 21056U 91003B   02359.88595078  .00000132  00000-0  10000-3 0  6027
2 21056   2.5955  88.4575 0002311 214.1245 158.9944  1.00267688 31333
INFORMATOR 1
1 21087U 91006A   02359.97949370 +.00000133 +00000-0 +12289-3 0 05876
2 21087 082.9409 357.8339 0036932 043.5246 316.8819 13.74920823597384
COSMOS 2123
1 21089U 91007A   02361.10564906  .00000160  00000-0  15232-3 0  4785
2 21089  82.9240 221.0430 0030837  74.5476 285.9088 13.74399034596444
ASTRA 1B
1 21139U 91015A   02354.00000000  .00000143  00000-0  10000-3 0  1552
2 21139   0.0122 319.8851 0002995  65.1991  82.5138  1.00273184 31584
METEOSAT 5 (MOP 2)
1 21140U 91015B   02360.69227946  .00000027  00000-0  10000-3 0  6529
2 21140   5.5102  70.2976 0000972 165.1071 171.8057  1.00276847 45501
NOAA 12
1 21263U 91032A   02361.89466954  .00000731  00000-0  33037-3 0  9127
2 21263  98.6208 347.4342 0012587 171.5093 188.6301 14.25042395603714
OSCAR 22 (UoSAT 5)
1 21575U 91050B   02361.87604028  .00000755  00000-0  25725-3 0  6866
2 21575  98.1366 351.6741 0006652 298.0412  62.0104 14.39115002600709
METEOR 3-5
1 21655U 91056A   02359.97476568 +.00000051 +00000-0 +10000-3 0 05605
2 21655 082.5572 077.4391 0013426 340.4525 019.6081 13.16976442546294
UARS
1 21701U 91063B   02361.34639491  .00002113  00000-0  17572-3 0  7856
2 21701  56.9817 247.4505 0006756 106.6718 253.5056 15.02739782617711
EUTELSAT 2-F3
1 21803U 91083A   02361.86509260  .00000137  00000-0  10000-3 0  5028
2 21803   2.4675  89.6382 0002487 210.0751 129.3047  1.00268089 36462
INMARSAT 2-F3
1 21814U 91084B   02361.37938358  .00000121  00000-0  10000-3 0  5899
2 21814   1.7114  57.6935 0002423 208.3405 184.2229  1.00274014 40360
INMARSAT 2-F4
1 21940U 92021B   02357.10755977 -.00000339  00000-0  10000-3 0  5590
2 21940   2.3705  19.4226 0001162 237.3054 342.4959  1.00278479 39100
EUTELSAT 2-F4
1 22028U 92041B   02357.23565395 -.00000084 +00000-0 +10000-3 0 03097
2 22028 001.5749 093.2309 0005265 186.9384 243.9160 01.00271395031204
OSCAR 23 (KITSAT 1)
1 22077U 92052B   02359.91384223 -.00000037 +00000-0 +10000-3 0 01837
2 22077 066.0871 240.1854 0014583 286.0999 073.8414 12.86406604487278
ASTRA 1C
1 22653U 93031A   02354.00000000  .00000143  00000-0  10000-3 0  7819
2 22653   0.0122 319.8851 0002995  65.1991  82.5058  1.00273184 30283
METEOR 2-21
1 22782U 93055A   02361.23508284  .00000208  00000-0  17474-3 0  4763
2 22782  82.5496 257.1963 0023323 132.9465 227.3656 13.83525699470714
KITSAT B
1 22825U 93061C   02361.88553886  .00000358  00000-0  15787-3 0  4487
2 22825  98.2799  29.2568 0009477  58.2379 301.9725 14.28923116482354
POSAT 1
1 22826U 93061D   02360.17369048  .00000432  00000-0  18644-3 0  2918
2 22826  98.2813  28.7208 0009960  60.4909 299.7259 14.29143001482150
ITAMSAT
1 22828U 93061F   02361.63697391  .00000346  00000-0  15140-3 0  3875
2 22828  98.2748  30.3732 0010840  37.1864 323.0065 14.29489336450560
EYESAT A
1 22829U 93061G   02361.65560234  .00000495  00000-0  20858-3 0  4118
2 22829  98.2792  30.9714 0010676  37.1906 323.0014 14.29739129482499
METEOSAT 6
1 22912U 93073B   02357.98751950  .00000073  00000-0  00000+0 0  6108
2 22912   2.5267  82.7660 0018472 258.2863 116.1471  1.00259034 31734
GOES 8
1 23051U 94022A   02360.26373866 -.00000239  00000-0  00000+0 0  5349
2 23051   0.4828 100.2918 0002373 159.6753 214.8309  1.00266681 39264
ASTRA 1D
1 23331U 94070A   02357.83004395  .00000154  00000-0  00000+0 0  7954
2 23331   0.0592 200.1467 0003605  30.1964 184.8974  1.00274439 30304
RADIO ROSTO
1 23439U 94085A   02358.32889677 -.00000039 +00000-0 +88484-4 0 06700
2 23439 064.8111 132.4240 0148444 126.1584 235.3183 11.27548420329252
NOAA 14
1 23455U 94089A   02361.94346121  .00000367  00000-0  22075-3 0  4665
2 23455  99.1890  14.1257 0009648  21.4645 338.6929 14.13276416412042
HIMAWARI 5 (GMS 5)
1 23522U 95011B   02361.54124972 -.00000269  00000-0  00000+0 0   264
2 23522   1.6260  82.6525 0001574 105.7179 242.5039  1.00277988 28351
HOT BIRD 1
1 23537U 95016B   02350.98339209  .00000112  00000-0  10000-3 0  5303
2 23537   0.0894  72.1866 0004167 105.4513 274.8892  1.00271885 28338
GOES 9
1 23581U 95025A   02354.75358751 -.00000058  00000-0  00000+0 0  4410
2 23581   0.5117  95.2472 0006996 240.2116 278.5179  1.00272358 27769
INMARSAT 3-F1
1 23839U 96020A   02355.67222818  .00000036  00000-0  00000+0 0  8394
2 23839   0.0456  12.9873 0004261 238.0560 144.9402  1.00273650 24621
ASTRA 1F
1 23842U 96021A   02354.00000000  .00000143  00000-0  10000-3 0  5540
2 23842   0.0122 319.8851 0002995  65.1991  82.5479  1.00273184 24510
JAS 2
1 24278U 96046B   02359.88831578 +.00000041 +00000-0 +78733-4 0 05561
2 24278 098.5314 153.5561 0351351 358.3777 001.6198 13.52867884313913
UNAMSAT
1 24305U 96052B   02360.21447759  .00000205  00000-0  20364-3 0  6493
2 24305  82.9312 302.9741 0031472 357.5345   2.5648 13.73444409316022
INMARSAT 3-F2
1 24307U 96053A   02356.97938659 -.00000106  00000-0  00000+0 0   629
2 24307   0.0472   4.0122 0004388 269.0038 155.4258  1.00272052 23049
HOT BIRD 2
1 24665U 96067A   02350.97625740  .00000112  00000-0  10000-3 0  3364
2 24665   0.0508 231.3890 0009627  13.0081 205.5338  1.00276963 22623
INMARSAT 3-F3
1 24674U 96070A   02361.64629984  .00000050  00000-0  10000-3 0  9578
2 24674   0.0517 355.2483 0004376 280.6320 230.8074  1.00272029 22055
GOES 10
1 24786U 97019A   02361.36365196  .00000100  00000-0  00000+0 0  4775
2 24786   0.0182 239.7888 0002881  67.1991 144.0925  1.00272977 20807
INMARSAT 3-F4
1 24819U 97027A   02360.27473560 -.00000274  00000-0  10000-3 0  8586
2 24819   0.0403 304.5192 0003275 337.5727 217.4361  1.00272797 20469
FENGYUN 2A
1 24834U 97029A   02360.95578905 -.00000188  00000-0  00000+0 0  9400
2 24834   2.4402  88.9258 0002094 241.9411 194.9989  1.00268853 20309
HOT BIRD 3
1 24931U 97049A   02351.86791068  .00000112  00000-0  10000-3 0  4177
2 24931   0.0013 322.2522 0005452 322.5658 126.9331  1.00273655 19453
METEOSAT 7
1 24932U 97049B   02360.83418404  .00000006  00000-0  00000+0 0  2181
2 24932   0.1048  16.0438 0001308 231.3308 148.0213  1.00270014 19485
ASTRA 1G
1 25071U 97076A   02354.00000000  .00000143  00000-0  10000-3 0  3859
2 25071   0.0122 319.8851 0002995  65.1991  82.5033  1.00273184 18537
